2000,3,1,0,5,-3.01,01,.04,01,-3.03,01,9900.00,99,9900.00,99
2000,3,1,0,10,-2.95,01,.17,01,-3.04,01,9900.00,99,9900.00,99
2000,3,1,0,15,-3.49,01,-.94,01,-3.41,01,9900.00,99,9900.00,99
2000,3,1,0,20,-3.45,01,-1.13,01,-3.34,01,9900.00,99,9900.00,99
2000,3,1,0,25,-3.32,01,-1.11,01,-3.12,01,9900.00,99,9900.00,99
2000,3,1,0,30,-3.26,01,-.83,01,-3.07,01,9900.00,99,9900.00,99
2000,3,1,0,35,-3.17,01,-.49,01,-3.05,01,9900.00,99,9900.00,99
2000,3,1,0,40,-3.07,01,-.34,01,-3.05,01,9900.00,99,9900.00,99
2000,3,1,0,45,-3.03,01,-.31,01,-3.04,01,9900.00,99,9900.00,99
2000,3,1,0,50,-2.91,01,-.23,01,-3.05,01,9900.00,99,9900.00,99
2000,3,1,0,55,-3.04,01,-.29,01,-3.05,01,9900.00,99,9900.00,99
2000,3,1,1,0,-3.14,01,-.38,01,-3.05,01,9900.00,99,9900.00,99
2000,3,1,1,5,-3.15,01,-.37,01,-3.05,01,9900.00,99,9900.00,99
2000,3,1,1,10,-3.13,01,-.41,01,-3.05,01,9900.00,99,9900.00,99
2000,3,1,1,15,-3.13,01,-.35,01,-3.06,01,9900.00,99,9900.00,99
2000,3,1,1,20,-2.82,01,.11,01,-2.98,01,9900.00,99,9900.00,99
2000,3,1,1,25,-3.04,01,-.34,01,-3.06,01,9900.00,99,9900.00,99
2000,3,1,1,30,-3.18,01,-.72,01,-3.06,01,9900.00,99,9900.00,99
2000,3,1,1,35,-3.34,01,-1.02,01,-3.12,01,9900.00,99,9900.00,99
2000,3,1,1,40,-3.34,01,-.98,01,-3.10,01,9900.00,99,9900.00,99
2000,3,1,1,45,-3.31,01,-1.01,01,-3.09,01,9900.00,99,9900.00,99
2000,3,1,1,50,-3.23,01,-.81,01,-3.07,01,9900.00,99,9900.00,99
2000,3,1,1,55,-3.01,01,-.54,01,-3.02,01,9900.00,99,9900.00,99
2000,3,1,2,0,-2.91,01,-.59,01,-3.01,01,9900.00,99,9900.00,99
2000,3,1,2,5,-2.98,01,-.53,01,-3.03,01,9900.00,99,9900.00,99
2000,3,1,2,10,-2.65,01,-.37,01,-2.61,01,9900.00,99,9900.00,99
2000,3,1,2,15,-2.29,01,-.41,01,-2.20,01,9900.00,99,9900.00,99
2000,3,1,2,20,-1.80,01,-.41,01,-1.83,01,9900.00,99,9900.00,99
2000,3,1,2,25,-1.37,01,-.17,01,-1.34,01,9900.00,99,9900.00,99
2000,3,1,2,30,-1.29,01,.16,01,-1.31,01,9900.00,99,9900.00,99
2000,3,1,2,35,-1.67,01,.13,01,-1.70,01,9900.00,99,9900.00,99
2000,3,1,2,40,-1.43,01,.21,01,-1.48,01,9900.00,99,9900.00,99
2000,3,1,2,45,-1.14,01,-.02,01,-1.31,01,9900.00,99,9900.00,99
2000,3,1,2,50,-1.78,01,-.12,01,-1.71,01,9900.00,99,9900.00,99
2000,3,1,2,55,-2.31,01,-.39,01,-2.18,01,9900.00,99,9900.00,99
2000,3,1,3,0,-2.22,01,-.56,01,-2.16,01,9900.00,99,9900.00,99
2000,3,1,3,5,-2.37,01,-.52,01,-2.29,01,9900.00,99,9900.00,99
2000,3,1,3,10,-2.59,01,-.41,01,-2.54,01,9900.00,99,9900.00,99
2000,3,1,3,15,-2.90,01,-.59,01,-2.99,01,9900.00,99,9900.00,99
2000,3,1,3,20,-3.19,01,-.95,01,-3.07,01,9900.00,99,9900.00,99
2000,3,1,3,25,-2.86,01,-.78,01,-2.85,01,9900.00,99,9900.00,99
2000,3,1,3,30,-2.18,01,-.71,01,-2.05,01,9900.00,99,9900.00,99
2000,3,1,3,35,-1.35,01,-.45,01,-1.35,01,9900.00,99,9900.00,99
2000,3,1,3,40,-.74,01,-.31,01,-.96,01,9900.00,99,9900.00,99
2000,3,1,3,45,-1.22,01,-.84,01,-1.21,01,9900.00,99,9900.00,99
2000,3,1,3,50,-3.26,01,-1.48,01,-2.75,01,9900.00,99,9900.00,99
2000,3,1,3,55,-3.88,01,-.04,01,-3.61,01,9900.00,99,9900.00,99
2000,3,1,4,0,-3.68,01,.38,01,-3.24,01,9900.00,99,9900.00,99
2000,3,1,4,5,-3.33,01,.36,01,-2.55,01,9900.00,99,9900.00,99
2000,3,1,4,10,-2.53,01,.43,01,-1.38,01,9900.00,99,9900.00,99
2000,3,1,4,15,-2.25,01,.38,01,-1.31,01,9900.00,99,9900.00,99
2000,3,1,4,20,-1.97,01,.16,01,-1.31,01,9900.00,99,9900.00,99
2000,3,1,4,25,-1.54,01,-.37,01,-1.29,01,9900.00,99,9900.00,99
2000,3,1,4,30,-1.53,01,-.59,01,-1.31,01,9900.00,99,9900.00,99
2000,3,1,4,35,-1.34,01,-.46,01,-1.31,01,9900.00,99,9900.00,99
2000,3,1,4,40,-1.45,01,-.51,01,-1.31,01,9900.00,99,9900.00,99
2000,3,1,4,45,-1.51,01,-.48,01,-1.31,01,9900.00,99,9900.00,99
2000,3,1,4,50,-1.42,01,-.43,01,-1.32,01,9900.00,99,9900.00,99
2000,3,1,4,55,-1.21,01,-.34,01,-1.31,01,9900.00,99,9900.00,99
2000,3,1,5,0,-1.17,01,-.35,01,-1.31,01,9900.00,99,9900.00,99
2000,3,1,5,5,-1.27,01,-.37,01,-1.31,01,9900.00,99,9900.00,99
2000,3,1,5,10,-1.28,01,-.36,01,-1.31,01,9900.00,99,9900.00,99
2000,3,1,5,15,-1.37,01,-.39,01,-1.31,01,9900.00,99,9900.00,99
2000,3,1,5,20,-1.39,01,-.36,01,-1.31,01,9900.00,99,9900.00,99
2000,3,1,5,25,-1.69,01,-.39,01,-1.65,01,9900.00,99,9900.00,99
2000,3,1,5,30,-2.37,01,-.39,01,-2.42,01,9900.00,99,9900.00,99
2000,3,1,5,35,-2.83,01,-.40,01,-2.95,01,9900.00,99,9900.00,99
2000,3,1,5,40,-3.32,01,-.68,01,-3.12,01,9900.00,99,9900.00,99
2000,3,1,5,45,-3.24,01,-.48,01,-3.06,01,9900.00,99,9900.00,99
2000,3,1,5,50,-3.32,01,-.76,01,-3.14,01,9900.00,99,9900.00,99
2000,3,1,5,55,-3.38,01,-.90,01,-3.18,01,9900.00,99,9900.00,99
2000,3,1,6,0,-3.25,01,-.69,01,-3.09,01,9900.00,99,9900.00,99
2000,3,1,6,5,-3.43,01,-.89,01,-3.10,01,9900.00,99,9900.00,99
2000,3,1,6,10,-3.44,01,-1.07,01,-3.39,01,9900.00,99,9900.00,99
2000,3,1,6,15,-3.47,01,-.98,01,-3.39,01,9900.00,99,9900.00,99
2000,3,1,6,20,-3.46,01,-.91,01,-3.34,01,9900.00,99,9900.00,99
2000,3,1,6,25,-3.45,01,-.97,01,-3.40,01,9900.00,99,9900.00,99
2000,3,1,6,30,-3.51,01,-1.08,01,-3.46,01,9900.00,99,9900.00,99
2000,3,1,6,35,-3.50,01,-.92,01,-3.46,01,9900.00,99,9900.00,99
2000,3,1,6,40,-3.50,01,-.74,01,-3.44,01,9900.00,99,9900.00,99
2000,3,1,6,45,-3.48,01,-.75,01,-3.36,01,9900.00,99,9900.00,99
2000,3,1,6,50,-3.44,01,-.58,01,-3.35,01,9900.00,99,9900.00,99
2000,3,1,6,55,-3.49,01,-.66,01,-3.23,01,9900.00,99,9900.00,99
2000,3,1,7,0,-3.32,01,-.43,01,-3.07,01,9900.00,99,9900.00,99
2000,3,1,7,5,-3.28,01,-.42,01,-3.09,01,9900.00,99,9900.00,99
2000,3,1,7,10,-3.43,01,-.94,01,-3.11,01,9900.00,99,9900.00,99
2000,3,1,7,15,-3.40,01,-.90,01,-3.10,01,9900.00,99,9900.00,99
2000,3,1,7,20,-3.07,01,-.70,01,-2.99,01,9900.00,99,9900.00,99
2000,3,1,7,25,-2.50,01,-1.02,01,-2.48,01,9900.00,99,9900.00,99
2000,3,1,7,30,-1.03,07,-.85,01,-1.12,07,9900.00,99,9900.00,99
2000,3,1,7,35,1.15,09,-.67,09,.92,09,9900.00,99,9900.00,99
2000,3,1,7,40,4.33,09,-.63,09,4.14,09,9900.00,99,9900.00,99
2000,3,1,7,45,9.37,09,2.08,09,9.02,09,9900.00,99,9900.00,99
2000,3,1,7,50,15.42,03,19.03,03,13.95,03,9900.00,99,9900.00,99
2000,3,1,7,55,23.77,03,46.07,03,20.21,03,9900.00,99,9900.00,99
2000,3,1,8,0,34.24,10,76.34,11,27.47,11,9900.00,99,9900.00,99
2000,3,1,8,5,41.70,14,89.05,15,32.69,15,9900.00,99,9900.00,99
2000,3,1,8,10,52.53,22,124.05,23,38.11,23,9900.00,99,9900.00,99
2000,3,1,8,15,67.04,30,173.44,31,44.66,31,9900.00,99,9900.00,99
2000,3,1,8,20,78.97,30,194.62,31,50.81,31,9900.00,99,9900.00,99
2000,3,1,8,25,90.31,30,205.37,31,56.88,31,9900.00,99,9900.00,99
2000,3,1,8,30,111.25,34,234.29,35,68.33,35,9900.00,99,9900.00,99
2000,3,1,8,35,112.94,14,121.52,15,84.98,15,9900.00,99,9900.00,99
2000,3,1,8,40,118.95,03,73.09,03,104.92,03,9900.00,99,9900.00,99
2000,3,1,8,45,96.32,03,2.19,03,84.66,03,9900.00,99,9900.00,99
2000,3,1,8,50,104.07,03,14.49,03,99.90,03,9900.00,99,9900.00,99
2000,3,1,8,55,172.89,22,212.70,23,115.07,23,9900.00,99,9900.00,99
2000,3,1,9,0,141.83,03,89.94,03,114.35,03,9900.00,99,9900.00,99
2000,3,1,9,5,156.75,10,125.76,11,115.92,11,9900.00,99,9900.00,99
2000,3,1,9,10,275.73,46,414.56,47,149.88,47,9900.00,99,9900.00,99
2000,3,1,9,15,177.88,03,67.71,03,148.80,03,9900.00,99,9900.00,99
2000,3,1,9,20,221.83,03,129.28,03,171.38,03,9900.00,99,9900.00,99
2000,3,1,9,25,161.21,03,19.44,03,157.82,03,9900.00,99,9900.00,99
2000,3,1,9,30,154.33,03,1.56,03,141.54,03,9900.00,99,9900.00,99
2000,3,1,9,35,141.81,03,5.53,03,127.37,03,9900.00,99,9900.00,99
2000,3,1,9,40,185.86,03,16.67,03,184.13,03,9900.00,99,9900.00,99
2000,3,1,9,45,165.28,11,1.40,10,146.91,10,9900.00,99,9900.00,99
2000,3,1,9,50,322.30,10,233.51,11,205.57,11,9900.00,99,9900.00,99
2000,3,1,9,55,268.35,03,164.35,03,179.02,03,9900.00,99,9900.00,99
2000,3,1,10,0,388.77,34,542.36,35,133.20,35,9900.00,99,9900.00,99
2000,3,1,10,5,408.85,30,510.90,31,156.92,31,9900.00,99,9900.00,99
2000,3,1,10,10,401.08,26,467.42,27,168.10,27,9900.00,99,9900.00,99
2000,3,1,10,15,447.35,22,454.23,23,207.32,23,9900.00,99,9900.00,99
2000,3,1,10,20,440.38,22,459.39,23,198.98,23,9900.00,99,9900.00,99
2000,3,1,10,25,466.84,34,622.23,35,134.39,35,9900.00,99,9900.00,99
2000,3,1,10,30,500.06,38,709.66,39,117.75,39,9900.00,99,9900.00,99
2000,3,1,10,35,516.02,38,735.67,39,111.50,39,9900.00,99,9900.00,99
2000,3,1,10,40,532.65,38,762.84,39,105.34,39,9900.00,99,9900.00,99
2000,3,1,10,45,552.80,34,785.25,35,104.66,35,9900.00,99,9900.00,99
2000,3,1,10,50,586.46,30,772.60,31,139.20,31,9900.00,99,9900.00,99
2000,3,1,10,55,399.67,10,302.01,11,217.81,11,9900.00,99,9900.00,99
2000,3,1,11,0,378.29,03,285.72,03,185.13,03,9900.00,99,9900.00,99
2000,3,1,11,5,640.78,26,777.92,27,159.79,27,9900.00,99,9900.00,99
2000,3,1,11,10,647.24,26,787.11,27,153.81,27,9900.00,99,9900.00,99
2000,3,1,11,15,647.57,30,801.76,31,141.37,31,9900.00,99,9900.00,99
2000,3,1,11,20,688.72,26,819.52,27,160.30,27,9900.00,99,9900.00,99
2000,3,1,11,25,716.18,26,821.56,27,185.17,27,9900.00,99,9900.00,99
2000,3,1,11,30,439.94,10,411.16,11,168.46,11,9900.00,99,9900.00,99
2000,3,1,11,35,582.51,14,681.10,15,126.87,15,9900.00,99,9900.00,99
2000,3,1,11,40,683.37,22,846.57,23,114.23,23,9900.00,99,9900.00,99
2000,3,1,11,45,683.83,22,844.00,23,111.65,23,9900.00,99,9900.00,99
2000,3,1,11,50,698.16,18,853.63,19,115.96,19,9900.00,99,9900.00,99
2000,3,1,11,55,715.66,18,852.46,19,132.24,19,9900.00,99,9900.00,99
2000,3,1,12,0,746.88,10,838.85,11,161.41,11,9900.00,99,9900.00,99
2000,3,1,12,5,735.53,18,860.32,19,130.74,19,9900.00,99,9900.00,99
2000,3,1,12,10,729.02,10,877.08,11,108.74,11,9900.00,99,9900.00,99
2000,3,1,12,15,731.37,14,890.42,15,99.79,15,9900.00,99,9900.00,99
2000,3,1,12,20,737.15,03,896.72,03,97.14,03,9900.00,99,9900.00,99
2000,3,1,12,25,742.25,03,897.85,03,96.97,03,9900.00,99,9900.00,99
2000,3,1,12,30,750.08,03,901.21,03,97.97,03,9900.00,99,9900.00,99
2000,3,1,12,35,753.86,03,899.55,03,98.38,03,9900.00,99,9900.00,99
2000,3,1,12,40,758.88,03,901.36,03,97.91,03,9900.00,99,9900.00,99
2000,3,1,12,45,766.04,03,904.60,03,97.60,03,9900.00,99,9900.00,99
2000,3,1,12,50,766.92,03,899.73,03,98.14,03,9900.00,99,9900.00,99
2000,3,1,12,55,772.81,03,905.79,03,96.90,03,9900.00,99,9900.00,99
2000,3,1,13,0,776.63,03,908.66,03,97.32,03,9900.00,99,9900.00,99
2000,3,1,13,5,776.19,03,907.66,03,96.61,03,9900.00,99,9900.00,99
2000,3,1,13,10,776.04,03,904.65,03,97.40,03,9900.00,99,9900.00,99
2000,3,1,13,15,780.05,03,909.63,03,97.36,03,9900.00,99,9900.00,99
2000,3,1,13,20,780.32,11,911.29,10,96.87,10,9900.00,99,9900.00,99
2000,3,1,13,25,770.83,15,895.94,14,99.00,14,9900.00,99,9900.00,99
2000,3,1,13,30,768.53,15,895.15,14,98.92,14,9900.00,99,9900.00,99
2000,3,1,13,35,774.21,15,907.24,14,97.33,14,9900.00,99,9900.00,99
2000,3,1,13,40,774.10,19,910.01,18,96.38,18,9900.00,99,9900.00,99
2000,3,1,13,45,772.14,19,909.13,18,97.02,18,9900.00,99,9900.00,99
2000,3,1,13,50,767.15,23,904.05,22,98.36,22,9900.00,99,9900.00,99
2000,3,1,13,55,764.53,19,903.50,18,98.79,18,9900.00,99,9900.00,99
2000,3,1,14,0,754.40,23,893.63,22,99.89,22,9900.00,99,9900.00,99
2000,3,1,14,5,748.31,27,891.17,26,98.70,26,9900.00,99,9900.00,99
2000,3,1,14,10,750.31,27,904.90,26,95.31,26,9900.00,99,9900.00,99
2000,3,1,14,15,745.45,27,902.91,26,96.07,26,9900.00,99,9900.00,99
2000,3,1,14,20,734.47,31,891.93,30,96.93,30,9900.00,99,9900.00,99
2000,3,1,14,25,735.10,35,905.26,34,93.12,34,9900.00,99,9900.00,99
2000,3,1,14,30,729.91,39,906.11,38,93.12,38,9900.00,99,9900.00,99
2000,3,1,14,35,724.48,39,905.00,38,93.04,38,9900.00,99,9900.00,99
2000,3,1,14,40,716.32,43,894.96,42,97.30,42,9900.00,99,9900.00,99
2000,3,1,14,45,698.27,43,872.86,42,100.79,42,9900.00,99,9900.00,99
2000,3,1,14,50,639.98,47,758.36,46,116.04,46,9900.00,99,9900.00,99
2000,3,1,14,55,586.13,43,675.79,42,119.25,42,9900.00,99,9900.00,99
2000,3,1,15,0,678.95,51,862.79,50,109.53,50,9900.00,99,9900.00,99
2000,3,1,15,5,672.50,51,874.79,50,102.67,50,9900.00,99,9900.00,99
2000,3,1,15,10,658.22,59,868.36,58,98.25,58,9900.00,99,9900.00,99
2000,3,1,15,15,637.46,59,845.12,58,100.75,58,9900.00,99,9900.00,99
2000,3,1,15,20,651.29,63,865.56,62,111.28,62,9900.00,99,9900.00,99
2000,3,1,15,25,644.87,67,850.39,66,120.04,66,9900.00,99,9900.00,99
2000,3,1,15,30,610.47,67,844.46,66,98.89,66,9900.00,99,9900.00,99
2000,3,1,15,35,589.01,67,833.08,66,93.76,66,9900.00,99,9900.00,99
2000,3,1,15,40,588.39,75,851.39,74,91.95,74,9900.00,99,9900.00,99
2000,3,1,15,45,538.00,75,780.97,74,88.99,74,9900.00,99,9900.00,99
2000,3,1,15,50,543.11,83,806.01,82,89.69,82,9900.00,99,9900.00,99
2000,3,1,15,55,551.52,08,834.20,02,91.32,02,9900.00,99,9900.00,99
2000,3,1,16,0,526.99,08,795.41,02,97.72,02,9900.00,99,9900.00,99
2000,3,1,16,5,546.94,08,805.53,28,122.37,28,9900.00,99,9900.00,99
2000,3,1,16,10,559.32,08,840.56,44,133.76,44,9900.00,99,9900.00,99
2000,3,1,16,15,520.71,08,839.94,24,104.27,24,9900.00,99,9900.00,99
2000,3,1,16,20,489.06,08,830.01,16,86.29,16,9900.00,99,9900.00,99
2000,3,1,16,25,466.97,08,822.07,02,77.92,02,9900.00,99,9900.00,99
2000,3,1,16,30,451.71,08,820.69,02,74.08,02,9900.00,99,9900.00,99
2000,3,1,16,35,435.88,08,820.04,02,69.27,02,9900.00,99,9900.00,99
2000,3,1,16,40,418.22,08,816.08,02,64.70,02,9900.00,99,9900.00,99
2000,3,1,16,45,404.18,08,815.36,02,61.87,02,9900.00,99,9900.00,99
2000,3,1,16,50,388.17,08,807.22,12,60.74,12,9900.00,99,9900.00,99
2000,3,1,16,55,369.34,08,792.74,12,59.55,12,9900.00,99,9900.00,99
2000,3,1,17,0,351.63,08,779.38,16,58.60,16,9900.00,99,9900.00,99
2000,3,1,17,5,333.96,08,766.92,20,56.84,20,9900.00,99,9900.00,99
2000,3,1,17,10,320.01,08,765.39,01,55.53,01,9900.00,99,9900.00,99
2000,3,1,17,15,301.73,08,757.09,01,52.60,01,9900.00,99,9900.00,99
2000,3,1,17,20,281.79,08,742.44,01,51.00,01,9900.00,99,9900.00,99
2000,3,1,17,25,264.12,08,734.18,01,49.13,01,9900.00,99,9900.00,99
2000,3,1,17,30,246.43,08,721.70,01,47.66,01,9900.00,99,9900.00,99
2000,3,1,17,35,226.11,08,698.90,01,46.53,01,9900.00,99,9900.00,99
2000,3,1,17,40,207.88,08,686.30,01,44.84,01,9900.00,99,9900.00,99
2000,3,1,17,45,187.13,08,662.36,01,43.10,08,9900.00,99,9900.00,99
2000,3,1,17,50,166.79,08,635.38,01,40.61,08,9900.00,99,9900.00,99
2000,3,1,17,55,149.55,08,618.28,01,38.82,08,9900.00,99,9900.00,99
2000,3,1,18,0,133.72,08,597.52,08,37.20,08,9900.00,99,9900.00,99
2000,3,1,18,5,119.55,08,577.91,08,35.05,08,9900.00,99,9900.00,99
2000,3,1,18,10,104.50,08,551.47,08,32.09,08,9900.00,99,9900.00,99
2000,3,1,18,15,91.10,08,528.15,08,29.32,08,9900.00,99,9900.00,99
2000,3,1,18,20,76.61,08,489.98,08,26.86,08,9900.00,99,9900.00,99
2000,3,1,18,25,63.13,08,450.03,08,24.21,08,9900.00,99,9900.00,99
2000,3,1,18,30,51.96,08,414.96,08,22.05,08,9900.00,99,9900.00,99
2000,3,1,18,35,40.24,08,375.28,08,18.87,08,9900.00,99,9900.00,99
2000,3,1,18,40,29.09,08,328.11,08,15.57,08,9900.00,99,9900.00,99
2000,3,1,18,45,19.33,08,275.91,08,12.06,08,9900.00,99,9900.00,99
2000,3,1,18,50,10.29,08,184.99,08,8.35,01,9900.00,99,9900.00,99
2000,3,1,18,55,3.50,01,88.48,08,3.30,01,9900.00,99,9900.00,99
2000,3,1,19,0,-.65,01,17.14,08,-.23,01,9900.00,99,9900.00,99
2000,3,1,19,5,-3.54,01,-2.33,01,-2.96,01,9900.00,99,9900.00,99
2000,3,1,19,10,-5.33,01,-2.65,01,-4.61,01,9900.00,99,9900.00,99
2000,3,1,19,15,-6.56,01,-2.63,01,-5.78,01,9900.00,99,9900.00,99
2000,3,1,19,20,-6.93,01,-2.64,01,-6.43,01,9900.00,99,9900.00,99
2000,3,1,19,25,-6.98,01,-2.65,01,-6.49,01,9900.00,99,9900.00,99
2000,3,1,19,30,-6.82,01,-2.66,01,-6.30,01,9900.00,99,9900.00,99
2000,3,1,19,35,-6.44,01,-2.60,01,-5.92,01,9900.00,99,9900.00,99
2000,3,1,19,40,-6.00,01,-2.62,01,-5.66,01,9900.00,99,9900.00,99
2000,3,1,19,45,-6.53,01,-2.60,01,-6.11,01,9900.00,99,9900.00,99
2000,3,1,19,50,-6.70,01,-2.60,01,-6.46,01,9900.00,99,9900.00,99
2000,3,1,19,55,-6.55,01,-2.28,01,-6.27,01,9900.00,99,9900.00,99
2000,3,1,20,0,-5.47,01,-1.70,01,-5.17,01,9900.00,99,9900.00,99
2000,3,1,20,5,-5.03,01,-1.59,01,-4.73,01,9900.00,99,9900.00,99
2000,3,1,20,10,-5.24,01,-1.78,01,-4.88,01,9900.00,99,9900.00,99
2000,3,1,20,15,-5.42,01,-1.74,01,-5.05,01,9900.00,99,9900.00,99
2000,3,1,20,20,-5.78,01,-1.86,01,-5.44,01,9900.00,99,9900.00,99
2000,3,1,20,25,-6.08,01,-2.12,01,-5.66,01,9900.00,99,9900.00,99
2000,3,1,20,30,-5.51,01,-1.85,01,-5.28,01,9900.00,99,9900.00,99
2000,3,1,20,35,-4.88,01,-1.35,01,-4.76,01,9900.00,99,9900.00,99
2000,3,1,20,40,-4.86,01,-1.14,01,-4.66,01,9900.00,99,9900.00,99
2000,3,1,20,45,-5.52,01,-1.35,01,-5.24,01,9900.00,99,9900.00,99
2000,3,1,20,50,-5.66,01,-1.63,01,-5.51,01,9900.00,99,9900.00,99
2000,3,1,20,55,-5.40,01,-1.81,01,-5.05,01,9900.00,99,9900.00,99
2000,3,1,21,0,-5.27,01,-1.79,01,-4.84,01,9900.00,99,9900.00,99
2000,3,1,21,5,-5.40,01,-1.82,01,-5.08,01,9900.00,99,9900.00,99
2000,3,1,21,10,-5.89,01,-2.32,01,-5.62,01,9900.00,99,9900.00,99
2000,3,1,21,15,-5.58,01,-1.88,01,-5.35,01,9900.00,99,9900.00,99
2000,3,1,21,20,-5.17,01,-1.35,01,-4.87,01,9900.00,99,9900.00,99
2000,3,1,21,25,-5.13,01,-1.22,01,-4.84,01,9900.00,99,9900.00,99
2000,3,1,21,30,-4.76,01,-1.10,01,-4.71,01,9900.00,99,9900.00,99
2000,3,1,21,35,-4.57,01,-1.01,01,-4.29,01,9900.00,99,9900.00,99
2000,3,1,21,40,-5.24,01,-1.25,01,-4.94,01,9900.00,99,9900.00,99
2000,3,1,21,45,-6.20,01,-1.65,01,-5.69,01,9900.00,99,9900.00,99
2000,3,1,21,50,-6.30,01,-1.76,01,-5.73,01,9900.00,99,9900.00,99
2000,3,1,21,55,-6.75,01,-2.25,01,-6.29,01,9900.00,99,9900.00,99
2000,3,1,22,0,-6.48,01,-1.87,01,-6.04,01,9900.00,99,9900.00,99
2000,3,1,22,5,-6.02,01,-1.49,01,-5.66,01,9900.00,99,9900.00,99
2000,3,1,22,10,-5.39,01,-1.12,01,-5.20,01,9900.00,99,9900.00,99
2000,3,1,22,15,-5.22,01,-1.02,01,-4.94,01,9900.00,99,9900.00,99
2000,3,1,22,20,-6.01,01,-1.17,01,-5.62,01,9900.00,99,9900.00,99
2000,3,1,22,25,-6.16,01,-1.23,01,-5.66,01,9900.00,99,9900.00,99
2000,3,1,22,30,-5.89,01,-1.20,01,-5.61,01,9900.00,99,9900.00,99
2000,3,1,22,35,-5.67,01,-1.31,01,-5.50,01,9900.00,99,9900.00,99
2000,3,1,22,40,-5.48,01,-1.20,01,-5.15,01,9900.00,99,9900.00,99
2000,3,1,22,45,-5.36,01,-1.15,01,-4.96,01,9900.00,99,9900.00,99
2000,3,1,22,50,-5.54,01,-1.28,01,-5.27,01,9900.00,99,9900.00,99
2000,3,1,22,55,-5.62,01,-1.35,01,-5.38,01,9900.00,99,9900.00,99
2000,3,1,23,0,-5.62,01,-1.31,01,-5.28,01,9900.00,99,9900.00,99
2000,3,1,23,5,-5.74,01,-1.25,01,-5.60,01,9900.00,99,9900.00,99
2000,3,1,23,10,-5.59,01,-1.28,01,-5.49,01,9900.00,99,9900.00,99
2000,3,1,23,15,-5.74,01,-1.35,01,-5.61,01,9900.00,99,9900.00,99
2000,3,1,23,20,-5.38,01,-1.29,01,-5.32,01,9900.00,99,9900.00,99
2000,3,1,23,25,-5.67,01,-1.58,01,-5.54,01,9900.00,99,9900.00,99
2000,3,1,23,30,-6.03,01,-1.65,01,-5.66,01,9900.00,99,9900.00,99
2000,3,1,23,35,-6.72,01,-1.86,01,-6.34,01,9900.00,99,9900.00,99
2000,3,1,23,40,-6.69,01,-1.81,01,-6.17,01,9900.00,99,9900.00,99
2000,3,1,23,45,-6.44,01,-1.78,01,-5.70,01,9900.00,99,9900.00,99
2000,3,1,23,50,-6.77,01,-2.05,01,-6.29,01,9900.00,99,9900.00,99
2000,3,1,23,55,-6.89,01,-2.55,01,-6.57,01,9900.00,99,9900.00,99
2000,3,2,0,0,-6.86,01,-2.58,01,-6.61,01,9900.00,99,9900.00,99
2000,3,2,0,5,-7.22,01,-2.63,01,-6.91,01,9900.00,99,9900.00,99
2000,3,2,0,10,-7.31,01,-2.58,01,-6.95,01,9900.00,99,9900.00,99
2000,3,2,0,15,-7.00,01,-2.31,01,-6.58,01,9900.00,99,9900.00,99
2000,3,2,0,20,-6.59,01,-2.08,01,-6.11,01,9900.00,99,9900.00,99
2000,3,2,0,25,-6.27,01,-2.25,01,-5.63,01,9900.00,99,9900.00,99
2000,3,2,0,30,-5.44,01,-1.86,01,-4.87,01,9900.00,99,9900.00,99
2000,3,2,0,35,-3.91,01,-.58,01,-3.79,01,9900.00,99,9900.00,99
2000,3,2,0,40,-3.53,01,.16,01,-3.47,01,9900.00,99,9900.00,99
2000,3,2,0,45,-3.58,01,.22,01,-3.59,01,9900.00,99,9900.00,99
2000,3,2,0,50,-4.23,01,-.33,01,-3.93,01,9900.00,99,9900.00,99
2000,3,2,0,55,-4.55,01,-.42,01,-4.19,01,9900.00,99,9900.00,99
2000,3,2,1,0,-4.61,01,-.75,01,-4.13,01,9900.00,99,9900.00,99
2000,3,2,1,5,-4.94,01,-1.16,01,-4.50,01,9900.00,99,9900.00,99
2000,3,2,1,10,-5.30,01,-1.16,01,-4.85,01,9900.00,99,9900.00,99
2000,3,2,1,15,-5.86,01,-1.50,01,-5.41,01,9900.00,99,9900.00,99
2000,3,2,1,20,-7.03,01,-2.02,01,-6.54,01,9900.00,99,9900.00,99
2000,3,2,1,25,-7.89,01,-2.65,01,-7.31,01,9900.00,99,9900.00,99
2000,3,2,1,30,-8.05,01,-3.33,01,-7.39,01,9900.00,99,9900.00,99
2000,3,2,1,35,-8.17,01,-3.35,01,-7.72,01,9900.00,99,9900.00,99
2000,3,2,1,40,-6.70,01,-2.52,01,-6.57,01,9900.00,99,9900.00,99
2000,3,2,1,45,-5.49,01,-2.10,01,-5.14,01,9900.00,99,9900.00,99
2000,3,2,1,50,-4.82,01,-1.41,01,-4.40,01,9900.00,99,9900.00,99
2000,3,2,1,55,-4.67,01,-1.38,01,-4.16,01,9900.00,99,9900.00,99
2000,3,2,2,0,-4.68,01,-1.25,01,-4.20,01,9900.00,99,9900.00,99
2000,3,2,2,5,-5.21,01,-1.41,01,-4.94,01,9900.00,99,9900.00,99
2000,3,2,2,10,-5.80,01,-1.80,01,-5.59,01,9900.00,99,9900.00,99
2000,3,2,2,15,-5.03,01,-1.64,01,-4.58,01,9900.00,99,9900.00,99
2000,3,2,2,20,-4.85,01,-1.96,01,-4.22,01,9900.00,99,9900.00,99
2000,3,2,2,25,-4.97,01,-2.43,01,-4.16,01,9900.00,99,9900.00,99
2000,3,2,2,30,-4.85,01,-2.37,01,-4.16,01,9900.00,99,9900.00,99
2000,3,2,2,35,-3.94,01,-1.81,01,-3.89,01,9900.00,99,9900.00,99
2000,3,2,2,40,-3.94,01,-1.63,01,-3.75,01,9900.00,99,9900.00,99
2000,3,2,2,45,-3.83,01,-1.13,01,-3.88,01,9900.00,99,9900.00,99
2000,3,2,2,50,-3.85,01,-1.13,01,-3.81,01,9900.00,99,9900.00,99
2000,3,2,2,55,-4.16,01,-1.15,01,-3.84,01,9900.00,99,9900.00,99
2000,3,2,3,0,-4.67,01,-1.34,01,-3.95,01,9900.00,99,9900.00,99
2000,3,2,3,5,-3.94,01,-1.09,01,-3.74,01,9900.00,99,9900.00,99
2000,3,2,3,10,-4.03,01,-1.13,01,-3.69,01,9900.00,99,9900.00,99
2000,3,2,3,15,-4.16,01,-1.13,01,-3.80,01,9900.00,99,9900.00,99
2000,3,2,3,20,-3.65,01,-1.13,01,-3.40,01,9900.00,99,9900.00,99
2000,3,2,3,25,-3.50,01,-1.13,01,-3.11,01,9900.00,99,9900.00,99
2000,3,2,3,30,-3.37,01,-1.08,01,-3.05,01,9900.00,99,9900.00,99
2000,3,2,3,35,-3.49,01,-.98,01,-3.08,01,9900.00,99,9900.00,99
2000,3,2,3,40,-3.59,01,-.93,01,-3.30,01,9900.00,99,9900.00,99
2000,3,2,3,45,-3.86,01,-1.06,01,-3.59,01,9900.00,99,9900.00,99
2000,3,2,3,50,-3.39,01,-.91,01,-3.13,01,9900.00,99,9900.00,99
2000,3,2,3,55,-2.75,01,-1.12,01,-2.30,01,9900.00,99,9900.00,99
2000,3,2,4,0,-1.62,01,-.39,01,-1.38,01,9900.00,99,9900.00,99
2000,3,2,4,5,-1.26,01,-.23,01,-1.30,01,9900.00,99,9900.00,99
2000,3,2,4,10,-1.50,01,-.18,01,-1.31,01,9900.00,99,9900.00,99
2000,3,2,4,15,-1.91,01,.05,01,-1.54,01,9900.00,99,9900.00,99
2000,3,2,4,20,-1.96,01,.34,01,-1.58,01,9900.00,99,9900.00,99
2000,3,2,4,25,-2.22,01,-.43,01,-2.12,01,9900.00,99,9900.00,99
2000,3,2,4,30,-2.65,01,-.89,01,-2.46,01,9900.00,99,9900.00,99
2000,3,2,4,35,-2.54,01,-.59,01,-2.34,01,9900.00,99,9900.00,99
2000,3,2,4,40,-2.67,01,-1.05,01,-2.50,01,9900.00,99,9900.00,99
2000,3,2,4,45,-2.20,01,-.58,01,-2.17,01,9900.00,99,9900.00,99
2000,3,2,4,50,-1.81,01,-.43,01,-1.64,01,9900.00,99,9900.00,99
2000,3,2,4,55,-1.89,01,-.99,01,-1.66,01,9900.00,99,9900.00,99
2000,3,2,5,0,-2.34,01,-1.52,01,-2.16,01,9900.00,99,9900.00,99
2000,3,2,5,5,-2.23,01,-1.30,01,-2.10,01,9900.00,99,9900.00,99
2000,3,2,5,10,-1.52,01,-.49,01,-1.48,01,9900.00,99,9900.00,99
2000,3,2,5,15,-1.69,01,-.86,01,-1.63,01,9900.00,99,9900.00,99
2000,3,2,5,20,-2.37,01,-.99,01,-2.19,01,9900.00,99,9900.00,99
2000,3,2,5,25,-1.81,01,.08,01,-1.90,01,9900.00,99,9900.00,99
2000,3,2,5,30,-1.64,01,.29,01,-1.74,01,9900.00,99,9900.00,99
2000,3,2,5,35,-2.23,01,-.31,01,-2.22,01,9900.00,99,9900.00,99
2000,3,2,5,40,-2.22,01,-.38,01,-2.20,01,9900.00,99,9900.00,99
2000,3,2,5,45,-2.68,01,-.95,01,-2.67,01,9900.00,99,9900.00,99
2000,3,2,5,50,-3.24,01,-1.13,01,-3.11,01,9900.00,99,9900.00,99
2000,3,2,5,55,-3.41,01,-1.14,01,-3.36,01,9900.00,99,9900.00,99
2000,3,2,6,0,-3.49,01,-1.38,01,-3.47,01,9900.00,99,9900.00,99
2000,3,2,6,5,-3.68,01,-1.70,01,-3.70,01,9900.00,99,9900.00,99
2000,3,2,6,10,-3.62,01,-1.77,01,-3.72,01,9900.00,99,9900.00,99
2000,3,2,6,15,-3.29,01,-1.61,01,-3.12,01,9900.00,99,9900.00,99
2000,3,2,6,20,-2.79,01,-1.30,01,-2.96,01,9900.00,99,9900.00,99
2000,3,2,6,25,-2.72,01,-1.13,01,-2.84,01,9900.00,99,9900.00,99
2000,3,2,6,30,-2.72,01,-1.09,01,-2.83,01,9900.00,99,9900.00,99
2000,3,2,6,35,-2.76,01,-1.15,01,-2.84,01,9900.00,99,9900.00,99
2000,3,2,6,40,-2.81,01,-1.24,01,-2.81,01,9900.00,99,9900.00,99
2000,3,2,6,45,-2.57,01,-1.15,01,-2.56,01,9900.00,99,9900.00,99
2000,3,2,6,50,-3.15,01,-1.25,01,-3.15,01,9900.00,99,9900.00,99
2000,3,2,6,55,-3.77,01,-1.42,01,-3.77,01,9900.00,99,9900.00,99
2000,3,2,7,0,-4.35,01,-1.86,01,-4.14,01,9900.00,99,9900.00,99
2000,3,2,7,5,-4.59,01,-1.81,01,-4.63,01,9900.00,99,9900.00,99
2000,3,2,7,10,-4.49,01,-1.56,01,-4.38,01,9900.00,99,9900.00,99
2000,3,2,7,15,-4.17,01,-1.53,01,-3.96,01,9900.00,99,9900.00,99
2000,3,2,7,20,-3.81,01,-1.43,01,-3.86,01,9900.00,99,9900.00,99
2000,3,2,7,25,-3.28,07,-1.19,01,-3.30,07,9900.00,99,9900.00,99